Location: Huesca
(42.1318°N, 0.4078°W)
Time: 11:51:49
(UTC+01:00)

O/OREOS (USA 219) - Pass Details

Date: 13 November 2024
Orbit: 590 x 609 km, 72.0° (Epoch: 06 December)

Event Time Altitude Azimuth Distance (km) Brightness Sun altitude
Rises 19:39:25 0° 215° (SW) 2,822 ? -21.9°
Reaches altitude 10° 19:41:42 10° 221° (SW) 1,922 ? -22.3°
Maximum altitude 19:45:52 49° 296° (WNW) 770 ? -23.1°
Enters shadow 19:48:04 25° 359° (N) 1,208 ? -23.5°
